timestamp,surface_pressure_avg,surface_temp_avg,battery_voltage,lat,long
2021-05-20 00:09:01+00:00,211.2147,6.1,13.29,47.84626,-54.09684
2021-05-20 00:19:01+00:00,212.8665,6.1,12.89,47.84626,-54.09684
2021-05-20 00:29:01+00:00,214.8381,6.1,12.89,47.84626,-54.09684
2021-05-20 00:39:01+00:00,215.1364,6.1,12.89,47.84626,-54.09684
2021-05-20 00:49:01+00:00,215.2048,6.1,12.89,47.84626,-54.09684
2021-05-20 00:59:01+00:00,216.7147,6.1,12.89,47.84626,-54.09684
2021-05-20 01:09:01+00:00,219.1631,6.14,12.89,47.84626,-54.09684
2021-05-20 01:19:01+00:00,223.2514,6.18,12.65,47.84626,-54.09684
2021-05-20 01:29:01+00:00,225.7865,6.2,12.65,47.84626,-54.09684
2021-05-20 01:39:01+00:00,224.4031,6.21,12.65,47.84626,-54.09684
2021-05-20 01:49:01+00:00,228.6431,6.27,12.65,47.84626,-54.09684
2021-05-20 01:59:01+00:00,236.1581,6.28,12.65,47.84626,-54.09684
2021-05-20 02:09:01+00:00,240.6547,6.29,12.65,47.84626,-54.09684
2021-05-20 02:19:00+00:00,242.1314,6.3,12.65,47.84626,-54.09684
2021-05-20 02:29:00+00:00,246.9481,6.3,12.65,47.84626,-54.09684
2021-05-20 02:39:00+00:00,252.7964,6.3,12.65,47.84626,-54.09684
2021-05-20 02:49:00+00:00,258.3848,6.44,12.65,47.84626,-54.09684
2021-05-20 02:59:00+00:00,262.0714,6.57,12.65,47.84626,-54.09684
2021-05-20 03:09:00+00:00,266.9814,6.61,12.65,47.84626,-54.09684
2021-05-20 03:19:00+00:00,270.1213,6.7,12.65,47.84626,-54.09684
2021-05-20 03:29:00+00:00,271.7248,6.84,12.65,47.84626,-54.09684
2021-05-20 03:39:00+00:00,273.9147,6.9,12.65,47.84626,-54.09684
2021-05-20 03:49:00+00:00,276.6848,6.9,12.65,47.84626,-54.09684
2021-05-20 03:59:00+00:00,278.0098,6.78,12.65,47.84626,-54.09684
2021-05-20 04:09:00+00:00,280.338,6.72,12.65,47.84626,-54.09684
2021-05-20 04:19:00+00:00,285.328,6.7,12.65,47.84626,-54.09684
2021-05-20 04:29:00+00:00,289.7563,6.7,12.65,47.84626,-54.09684
2021-05-20 04:39:00+00:00,294.0114,6.64,12.65,47.84626,-54.09684
2021-05-20 04:49:00+00:00,294.9815,6.6,12.65,47.84626,-54.09684
2021-05-20 04:59:00+00:00,296.0464,6.6,12.65,47.84626,-54.09684
2021-05-20 05:09:00+00:00,300.4713,6.6,12.65,47.84626,-54.09684
2021-05-20 05:19:01+00:00,306.5296,6.6,12.65,47.84626,-54.09684
2021-05-20 05:29:01+00:00,306.4581,6.6,12.65,47.84626,-54.09684
2021-05-20 05:39:01+00:00,304.3929,6.6,12.65,47.84626,-54.09684
2021-05-20 05:49:01+00:00,305.2247,6.6,12.65,47.84626,-54.09684
2021-05-20 05:59:01+00:00,307.4814,6.6,12.65,47.84626,-54.09684
2021-05-20 06:09:01+00:00,305.7313,6.61,12.65,47.84626,-54.09684
2021-05-20 06:19:01+00:00,304.768,6.6,12.57,47.84626,-54.09684
2021-05-20 06:29:01+00:00,304.4448,6.6,12.57,47.84626,-54.09684
2021-05-20 06:39:01+00:00,304.068,6.6,12.57,47.84626,-54.09684
2021-05-20 06:49:01+00:00,299.7864,6.59,12.57,47.84626,-54.09684
2021-05-20 06:59:01+00:00,296.4747,6.59,12.57,47.84626,-54.09684
2021-05-20 07:09:01+00:00,294.6247,6.6,12.57,47.84626,-54.09684
2021-05-20 07:19:01+00:00,291.1914,6.6,12.57,47.84626,-54.09684
2021-05-20 07:29:01+00:00,284.1047,6.6,12.57,47.84626,-54.09684
2021-05-20 07:39:01+00:00,280.1898,6.6,12.57,47.84626,-54.09684
2021-05-20 07:49:01+00:00,278.2497,6.6,12.57,47.84626,-54.09684
2021-05-20 07:59:01+00:00,273.358,6.6,12.57,47.84626,-54.09684
2021-05-20 08:09:01+00:00,264.9797,6.6,12.57,47.84626,-54.09684
2021-05-20 08:19:01+00:00,261.0031,6.6,12.49,47.84626,-54.09684
2021-05-20 08:29:01+00:00,258.9363,6.6,12.49,47.84626,-54.09684
2021-05-20 08:39:01+00:00,254.0165,6.6,12.49,47.84626,-54.09684
2021-05-20 08:49:01+00:00,247.7214,6.6,12.49,47.84626,-54.09684
2021-05-20 08:59:01+00:00,242.9681,6.6,12.49,47.84626,-54.09684
2021-05-20 09:09:01+00:00,239.9848,6.63,12.49,47.84626,-54.09684
2021-05-20 09:19:00+00:00,232.7381,6.96,12.81,47.84626,-54.09684
2021-05-20 09:29:00+00:00,225.2581,7.1,12.81,47.84626,-54.09684
2021-05-20 09:39:00+00:00,223.2097,7.1,12.81,47.84626,-54.09684
2021-05-20 09:49:00+00:00,220.2898,7.19,12.81,47.84626,-54.09684
2021-05-20 09:59:00+00:00,212.2381,7.3,12.81,47.84626,-54.09684
2021-05-20 10:09:00+00:00,208.7431,7.3,12.81,47.84626,-54.09684
2021-05-20 10:19:01+00:00,208.5398,7.3,13.44,47.84626,-54.09684
2021-05-20 10:29:01+00:00,201.5748,7.36,13.44,47.84626,-54.09684
2021-05-20 10:39:01+00:00,195.2897,7.39,13.44,47.84626,-54.09684
2021-05-20 10:49:01+00:00,196.6315,7.36,13.44,47.84626,-54.09684
2021-05-20 10:59:01+00:00,196.2631,7.32,13.44,47.84626,-54.09684
2021-05-20 11:09:01+00:00,192.7665,7.36,13.44,47.84626,-54.09684
2021-05-20 11:19:01+00:00,190.9015,7.36,13.92,47.84626,-54.09684
2021-05-20 11:29:01+00:00,192.0999,7.3,13.92,47.84626,-54.09684
2021-05-20 11:39:01+00:00,192.9715,7.3,13.92,47.84626,-54.09684
2021-05-20 11:49:01+00:00,192.6265,7.28,13.92,47.84626,-54.09684
2021-05-20 11:59:01+00:00,191.0864,7.29,13.92,47.84626,-54.09684
2021-05-20 12:09:01+00:00,189.5014,7.3,13.92,47.84626,-54.09684
2021-05-20 12:19:00+00:00,190.0448,7.3,14.56,47.84626,-54.09684
2021-05-20 12:29:00+00:00,190.3616,7.3,14.56,47.84626,-54.09684
2021-05-20 12:39:00+00:00,191.4082,7.3,14.56,47.84626,-54.09684
2021-05-20 12:49:00+00:00,192.2948,7.34,14.56,47.84626,-54.09684
2021-05-20 12:59:00+00:00,193.183,7.38,14.56,47.84626,-54.09684
2021-05-20 13:09:00+00:00,195.0465,7.39,14.56,47.84626,-54.09684
2021-05-20 13:19:00+00:00,193.2415,7.3,14.56,47.84626,-54.09684
2021-05-20 13:29:00+00:00,194.8215,7.3,14.56,47.84626,-54.09684
2021-05-20 13:39:00+00:00,199.9048,7.3,14.56,47.84626,-54.09684
2021-05-20 13:49:00+00:00,200.7398,7.35,14.56,47.84626,-54.09684
2021-05-20 13:59:00+00:00,200.2714,7.39,14.56,47.84626,-54.09684
2021-05-20 14:09:00+00:00,202.5048,7.3,14.56,47.84626,-54.09684
2021-05-20 14:19:01+00:00,206.4464,7.3,14.48,47.84626,-54.09684
2021-05-20 14:29:01+00:00,208.5331,7.3,14.48,47.84626,-54.09684
2021-05-20 14:39:01+00:00,213.4164,7.3,14.48,47.84626,-54.09684
2021-05-20 14:49:01+00:00,220.0814,7.3,14.48,47.84626,-54.09684
2021-05-20 14:59:01+00:00,223.9448,7.3,14.48,47.84626,-54.09684
2021-05-20 15:09:01+00:00,227.5064,7.3,14.48,47.84626,-54.09684
2021-05-20 15:19:01+00:00,231.0648,7.3,14.48,47.84626,-54.09684
2021-05-20 15:29:01+00:00,234.0147,7.3,14.48,47.84626,-54.09684
2021-05-20 15:39:01+00:00,237.9165,7.3,14.48,47.84626,-54.09684
2021-05-20 15:49:01+00:00,241.4498,7.3,14.48,47.84626,-54.09684
2021-05-20 15:59:01+00:00,245.6814,7.25,14.48,47.84626,-54.09684
2021-05-20 16:09:01+00:00,250.3548,7.2,14.48,47.84626,-54.09684
2021-05-20 16:19:01+00:00,255.5331,7.0,14.32,47.84626,-54.09684
2021-05-20 16:29:01+00:00,259.9314,6.9,14.32,47.84626,-54.09684
2021-05-20 16:39:01+00:00,263.9247,6.9,14.32,47.84626,-54.09684
2021-05-20 16:49:01+00:00,266.5131,6.9,14.32,47.84626,-54.09684
2021-05-20 16:59:01+00:00,269.3581,6.9,14.32,47.84626,-54.09684
2021-05-20 17:09:01+00:00,272.738,6.9,14.32,47.84626,-54.09684
2021-05-20 17:19:01+00:00,275.1281,6.9,14.24,47.84626,-54.09684
2021-05-20 17:29:01+00:00,277.8047,6.9,14.24,47.84626,-54.09684
2021-05-20 17:39:01+00:00,280.8797,6.89,14.24,47.84626,-54.09684
2021-05-20 17:49:01+00:00,281.9981,6.86,14.24,47.84626,-54.09684
2021-05-20 17:59:01+00:00,281.8414,6.88,14.24,47.84626,-54.09684
2021-05-20 18:09:01+00:00,284.2297,6.9,14.24,47.84626,-54.09684
2021-05-20 18:19:01+00:00,286.1447,6.9,14.08,47.84626,-54.09684
2021-05-20 18:29:01+00:00,283.7947,6.9,14.08,47.84626,-54.09684
2021-05-20 18:39:01+00:00,284.258,6.9,14.08,47.84626,-54.09684
2021-05-20 18:49:01+00:00,287.153,6.9,14.08,47.84626,-54.09684
2021-05-20 18:59:01+00:00,285.093,6.9,14.08,47.84626,-54.09684
2021-05-20 19:09:01+00:00,279.293,6.9,14.08,47.84626,-54.09684
2021-05-20 19:19:01+00:00,278.323,6.82,14.0,47.84626,-54.09684
2021-05-20 19:29:01+00:00,278.7247,6.8,14.0,47.84626,-54.09684
2021-05-20 19:39:01+00:00,273.5331,6.8,14.0,47.84626,-54.09684
2021-05-20 19:49:01+00:00,266.5731,6.8,14.0,47.84626,-54.09684
2021-05-20 19:59:01+00:00,265.613,6.8,14.0,47.84626,-54.09684
2021-05-20 20:09:01+00:00,261.3247,6.8,14.0,47.84626,-54.09684
2021-05-20 20:19:01+00:00,252.3164,6.8,13.92,47.84626,-54.09684
2021-05-20 20:29:01+00:00,244.8564,6.79,13.92,47.84626,-54.09684
2021-05-20 20:39:01+00:00,243.1131,6.74,13.92,47.84626,-54.09684
2021-05-20 20:49:01+00:00,236.3264,6.7,13.92,47.84626,-54.09684
2021-05-20 20:59:01+00:00,229.5147,6.7,13.92,47.84626,-54.09684
2021-05-20 21:09:01+00:00,227.2248,6.66,13.92,47.84626,-54.09684
2021-05-20 21:19:01+00:00,224.0897,6.6,13.76,47.84626,-54.09684
2021-05-20 21:29:01+00:00,220.5231,6.6,13.76,47.84626,-54.09684
2021-05-20 21:39:01+00:00,216.1465,6.62,13.76,47.84626,-54.09684
2021-05-20 21:49:01+00:00,213.4581,6.7,13.76,47.84626,-54.09684
2021-05-20 21:59:01+00:00,211.8631,6.7,13.76,47.84626,-54.09684
2021-05-20 22:09:01+00:00,207.7664,6.78,13.76,47.84626,-54.09684
2021-05-20 22:19:00+00:00,205.3165,6.8,13.6,47.84626,-54.09684
2021-05-20 22:29:00+00:00,201.5098,6.8,13.6,47.84626,-54.09684
2021-05-20 22:39:00+00:00,199.7098,6.84,13.6,47.84626,-54.09684
2021-05-20 22:49:00+00:00,198.1348,6.9,13.6,47.84626,-54.09684
2021-05-20 22:59:00+00:00,195.0731,6.96,13.6,47.84626,-54.09684
2021-05-20 23:09:00+00:00,195.2048,7.0,13.6,47.84626,-54.09684
2021-05-20 23:19:00+00:00,196.2214,7.0,13.21,47.84626,-54.09684
2021-05-20 23:29:00+00:00,194.1198,7.04,13.21,47.84626,-54.09684
2021-05-20 23:39:00+00:00,193.5514,7.07,13.21,47.84626,-54.09684
2021-05-20 23:49:00+00:00,193.9698,7.08,13.21,47.84626,-54.09684
2021-05-20 23:59:00+00:00,195.0831,7.09,13.21,47.84626,-54.09684
